Flight Track Log - Related Links

Times and Time Zones

All times are in EDT time to prevent confusion due to time zone crossing. See the SWA182 flight status page for this flight to view local times or setup timezone preferences in your user account.

Time Position Orientation Groundspeed Altitude Reporting Facility
EDT Latitude Longitude Course Direction KTS MPH feet Rate Location/Type
Sun 06:13:42 PM 32.8333 -96.8333 140° Southeast 119 137 1,400  Level Dallas / Fort Worth TRACON
Sun 06:14:12 PM 32.8167 -96.8167 140° Southeast 164 189 2,400 2,176 Climbing Dallas / Fort Worth TRACON
Sun 06:15:24 PM 32.7667 -96.7500 132° Southeast 220 253 5,100 2,409 Climbing Dallas / Fort Worth TRACON
Sun 06:16:24 PM 32.7167 -96.7333 164° South 247 284 7,700 2,554 Climbing Dallas / Fort Worth TRACON
Sun 06:18:39 PM 32.5567 -96.8539 212° Southwest 314 361 13,400 2,677 Climbing Fort Worth Center
Sun 06:19:39 PM 32.4628 -96.8817 194° South 339 390 16,400 2,500 Climbing Fort Worth Center
Sun 06:20:39 PM 32.3606 -96.9042 191° South 366 421 18,400 2,500 Climbing Fort Worth Center
Sun 06:21:39 PM 32.2542 -96.9269 190° South 385 443 21,400 2,550 Climbing Fort Worth Center
Sun 06:22:39 PM 32.1436 -96.9519 191° South 397 457 23,500 2,150 Climbing Fort Worth Center
Sun 06:23:39 PM 32.0308 -96.9772 191° South 409 471 25,700 2,250 Climbing Fort Worth Center
Sun 06:24:39 PM 31.9161 -96.9997 189° South 414 476 28,000 2,150 Climbing Fort Worth Center
Sun 06:25:39 PM 31.8036 -97.0247 191° South 409 471 30,000 822 Climbing Fort Worth Center
Sun 06:27:05 PM 31.6525 -97.0567 190° South 423 487 30,000  Level Houston Center
Sun 06:28:07 PM 31.5158 -97.0867 191° South 424 488 30,000  Level Houston Center
Sun 06:29:09 PM 31.4028 -97.1333 199° South 424 488 30,000  Level Houston Center
Sun 06:30:11 PM 31.2906 -97.1778 199° South 423 487 30,000  Level Houston Center
Sun 06:31:13 PM 31.1775 -97.2219 198° South 423 487 30,000  Level Houston Center
Sun 06:32:15 PM 31.0653 -97.2664 199° South 425 489 30,000  Level Houston Center
Sun 06:33:16 PM 30.9494 -97.3097 198° South 432 497 30,000  Level Houston Center
Sun 06:34:18 PM 30.8200 -97.3603 199° South 442 509 30,000  Level Houston Center
Sun 06:35:20 PM 30.7078 -97.4036 198° South 426 490 30,000 -919 Level Houston Center
Sun 06:36:22 PM 30.5978 -97.4458 198° South 417 480 28,100 -1,887 Descending Houston Center
Sun 06:37:24 PM 30.4914 -97.4864 198° South 404 465 26,100 -1,887 Descending Houston Center
Sun 06:38:26 PM 30.3872 -97.5272 199° South 393 452 24,200 -2,195 Descending Houston Center
Sun 06:39:27 PM 30.2947 -97.5883 210° Southwest 379 436 21,600 -2,390 Descending Houston Center
Sun 06:40:29 PM 30.2031 -97.6522 211° Southwest 380 437 19,300 -2,421 Descending Houston Center
Sun 06:41:21 PM 30.1156 -97.7133 211° Southwest 380 437 17,000 -2,304 Descending Houston Center
Sun 06:42:21 PM 30.0289 -97.7728 211° Southwest 364 419 15,000 -1,934 Descending Houston Center
Sun 06:43:22 PM 29.9439 -97.8294 210° Southwest 346 398 13,100 -1,180 Descending Houston Center
Sun 06:44:23 PM 29.8800 -97.9075 227° Southwest 314 361 12,600 -738 Descending Houston Center
Sun 06:45:24 PM 29.8422 -97.9964 244° Southwest 307 353 11,600 -1,266 Descending Houston Center
Sun 06:46:31 PM 29.8008 -98.0908 243° Southwest 310 357 9,900 -1,370 Descending Houston Center
Sun 06:47:31 PM 29.7650 -98.1772 244° Southwest 294 338 8,700 -1,357 Descending Houston Center
Sun 06:48:26 PM 29.7339 -98.2508 244° Southwest 279 321 7,300 -1,377 Descending Houston Center
Sun 06:49:33 PM 29.6964 -98.3444 245° Southwest 278 320 5,900 -934 Descending Houston Center
Sun 06:50:28 PM 29.6711 -98.4100 246° West 241 277 5,400 -887 Descending Houston Center
Sun 06:51:28 PM 29.6456 -98.4756 246° West 222 255 4,200 -1,304 Descending Houston Center
Sun 06:52:23 PM 29.6231 -98.5286 244° Southwest 187 215 2,900 -1,034 Descending Houston Center
Sun 06:53:24 PM 29.5867 -98.5428 199° South 136 157 2,200 -725 Descending Houston Center
Sun 06:53:54 PM 29.5725 -98.5236 130° Southeast 141 162 1,800 -896 Descending Houston Center
Sun 06:54:31 PM 29.5581 -98.5053 132° Southeast 129 148 1,200 -973 Descending Houston Center
Sun 06:56:00 PM 29.5340 -98.4691 184° South  Level Estimated
Sun 07:03:00 PM 29.5333 -98.4667 16° North  Level FlightAware Approximate
Sun 07:04:00 PM 29.5340 -98.4691 16° North  Level Estimated

Login

Don't have an account? Register now (free) for customized features, flight alerts, and more!